Location: ????????
(41.2031°N, 22.5756°E)
Time: 05:52:54
(UTC+00:00)

CZ-2C R/B - Pass Details

Date: 01 December 2020
Orbit: 705 x 907 km, 98.1° (Epoch: 20 January)

Event Time Altitude Azimuth Distance (km) Brightness Sun altitude
Rises 17:11:35 0° 169° (S) 3,246 6.2 -23.9°
Reaches altitude 10° 17:13:56 10° 171° (S) 2,294 5.4 -24.3°
Maximum altitude 17:18:58 77° 257° (WSW) 762 3.0 -25.3°
Drops below altitude 10° 17:23:48 10° 344° (NNW) 2,213 5.5 -26.2°
Sets 17:26:03 0° 346° (NNW) 3,123 6.3 -26.6°
